Regional Weather Roundup
Issued by NWS

Home | Current Version | Previous Version | Text Only | Print | Product List | Glossary Off
Versions: 1 2 3 4 5 6 7 8 9 10 11 12 13 14 15 16 17 18 19 20 21 22 23 24 25 26 27 28 29 30 31 32 33 34 35 36 37 38 39 40 41 42 43 44 45 46 47 48 49 50

000
ASUS43 KMKX 071600
RWRWI

WISCONSIN REGIONAL WEATHER ROUNDUP
NATIONAL WEATHER SERVICE MILWAUKEE/SULLIVAN WI
1100 AM CDT TUE JUL 07 2015

NOTE: "FAIR" INDICATES FEW OR NO CLOUDS BELOW 12,000 FEET WITH NO
SIGNIFICANT WEATHER AND/OR OBSTRUCTIONS TO VISIBILITY.

WIZ001-002-006>008-014>016-023>028-071700-
NORTHWEST WISCONSIN

CITY           SKY/WX    TMP DP  RH WIND       PRES   REMARKS
SUPERIOR ARPT  SUNNY     63  47  55 NE3       30.16R
ASHLAND        SUNNY     64  52  64 NE9       30.14S
HAYWARD        PTSUNNY   62  47  57 VRB5      30.15S
SIREN          MOSUNNY   62  45  55 NE8       30.16S
CUMBERLAND     PTSUNNY   61  45  55 N12       30.15S
RICE LAKE      PTSUNNY   62  46  55 NW10      30.16S
CHETEK         PTSUNNY   61  46  58 N10G16    30.14S
LADYSMITH      PTSUNNY   62  49  61 N9G20     30.15R
EAU CLAIRE     NOT AVBL
MENOMONIE      MOSUNNY   62  42  47 N7G16     30.14R
NEW RICHMOND   SUNNY     62  46  55 N6        30.16S
OSCEOLA        MOSUNNY   62  47  57 N8G17     30.19S
$$

WIZ003>005-009-010-017-018-071700-
NORTH CENTRAL WISCONSIN

CITY           SKY/WX    TMP DP  RH WIND       PRES   REMARKS
MANITOWISH WTR PTSUNNY   56  46  67 N9        30.11S
ARBOR VITAE    MOSUNNY   59  46  61 N10G24    30.10S
WOODRUFF       MOSUNNY   59  46  61 N10G24    30.10S
RHINELANDER    PTSUNNY   59  45  59 N12       30.11R
EAGLE RIVER    PTSUNNY   55  43  62 N13G21    30.10R
LAND O LAKES   PTSUNNY   58  44  60 N16       30.10S
PHILLIPS       PTSUNNY   58  45  61 N12G18    30.11S
TOMAHAWK       PTSUNNY   58  46  63 N6        30.11S
MEDFORD        CLOUDY    56  46  69 N8        30.12R
MERRILL        CLOUDY    60  46  60 N9G17     30.10S
$$

WIZ029-030-035-036-043>047-071700-
CENTRAL WISCONSIN

CITY           SKY/WX    TMP DP  RH WIND       PRES   REMARKS
WAUSAU         CLOUDY    60  42  51 N8G18     30.09R
MOSINEE        NOT AVBL
MARSHFIELD     CLOUDY    61  45  55 VRB7      30.11R
STEVENS POINT  CLOUDY    58  45  60 N12       30.09S
WAUPACA        MOSUNNY   67  48  51 N8        30.07R
WAUTOMA        NOT AVBL
WISC RAPIDS    CLOUDY    62  45  53 N10       30.10R
CAMP DOUGLAS   NOT AVBL
$$

WIZ011>013-019>022-031-037>040-048>050-071700-
NORTHEAST WISCONSIN

CITY           SKY/WX    TMP DP  RH WIND       PRES   REMARKS
ANTIGO         PTSUNNY   57  46  65 N16       30.09R
SHAWANO        CLOUDY    63  46  54 N14       30.07R
OCONTO         CLOUDY    61  48  62 NW9G18    30.04S
STURGEON BAY   CLOUDY    61  46  59 N16G22    30.06R
GREEN BAY      CLOUDY    65  47  52 N18G24    30.04S
MANITOWOC      NOT AVBL
APPLETON       PTSUNNY   63  45  51 N14G20    30.05S
CLINTONVILLE   CLOUDY    63  43  48 N13G20    30.07R
OSHKOSH        PTSUNNY   65  49  56 N14G24    30.04S
$$

WIZ032>034-041-042-053>061-071700-
SOUTHWEST WISCONSIN

CITY           SKY/WX    TMP DP  RH WIND       PRES   REMARKS
LA CROSSE      CLOUDY    65  46  50 N13       30.11S
SPARTA         CLOUDY    61  45  56 N9        30.11S
VIROQUA        CLOUDY    60  48  65 N12       30.10S
BOSCOBEL       PTSUNNY   66  52  60 NE7       30.08S
PRAIRIE DU CHI MOSUNNY   66  50  56 N12       30.08S
PLATTEVILLE    CLOUDY    63  56  79 N10       30.07S
$$

WIZ056-057-062-063-064-067-068-071700-
SOUTH CENTRAL WISCONSIN

CITY           SKY/WX    TMP DP  RH WIND       PRES   REMARKS
REEDSBURG      CLOUDY    62  52  71 N10       30.07S
BARABOO/DELLS  CLOUDY    62  51  68 N6        30.07S
LONE ROCK      CLOUDY    64  53  67 N7        30.08R
MINERAL POINT  MOSUNNY   64  55  72 N9G16     30.07S HAZE
MADISON        PTSUNNY   67  54  63 N12G17    30.04S SMOKE
MIDDLETON      MOSUNNY   65  54  65 N9        30.05S
WATERTOWN      PTSUNNY   64  54  68 N12       30.03S
MONROE         PTSUNNY   64  55  72 N9G21     30.04R HAZE
JANESVILLE     PTSUNNY   66  55  68 N14       30.01S HAZE
$$

WIZ051-052-058>065-066-070>072-071700-
SOUTHEAST WISCONSIN

CITY           SKY/WX    TMP DP  RH WIND       PRES   REMARKS
MILWAUKEE      MOSUNNY   64  48  56 NE15G22   30.01S
WAUKESHA       PTSUNNY   63  52  67 N14       30.03S
MILWAUKEE/TIMM MOSUNNY   64  48  55 N13       30.03R
RACINE         SUNNY     64  50  60 N14G26    30.03S
BURLINGTON     SUNNY     64  52  66 NE12      30.01S
KENOSHA        SUNNY     65  49  56 N16G23    30.01S
FOND DU LAC    PTSUNNY   65  49  56 N13       30.05R
SHEBOYGAN      PTSUNNY   64  48  56 N15G23    30.03R
WEST BEND        N/A     63  50  63 N13       30.03R
JUNEAU         CLOUDY    63  51  64 N9G17     30.05R
$$

LSZ147-162-071700-
LAKE SUPERIOR

STATION/POSITION TIME  TEMP    WIND        PRES    WAVE
                       AIR SEA DIR/SP/G            HT/PER
                 (UTC) (F)     (DEG/KT/KT) (MB)    (FT/S)
W MID LAKE BUOY  1450   47 39  280/  8/  8 1020.0R   1
DEVILS ISLAND    1500   56     330/  7/  8 1020.9R
PORT WING        1500   59     360/  4/  6 1021.0
SAXON HARBOR     1500   59      10/ 12/ 13 1020.0R
$$

LMZ867-665-643>646-071700-
LAKE MICHIGAN

STATION/POSITION TIME  TEMP    WIND        PRES    WAVE
                       AIR SEA DIR/SP/G            HT/PER
                 (UTC) (F)     (DEG/KT/KT) (MB)    (FT/S)
CHAMBERS ISLAND  1500   59     330/ 15/ 19 1016.9R
N MID LAKE BUOY  1450   54 51  310/ 16/ 19 1015.4R   3/ 4
NORTHPORT PIER   1500   58     350/ 19/ 23 1016.3R
SISTER BAY       1429   60     360/ 21/ 25   N/A
ALGOMA LAKESHORE 1411           10/ 17/ 22   N/A
KEWAUNEE LAKESHO 1500   63     340/ 12/ 16 1015.8R
SHEBOYGAN LAKESH 1500   58      20/ 13/ 14 1016.7R
PORT WASHINGTON  1540   67      10/  7/ 16 1016.9R
ATWATER BUOY     1500   59 58   10/ 10/ 14 1017.7R
MILWAUKEE LAKESH 1500   60      20/ 14/ 19   N/A
KENOSHA   LAKESH 1500   59      10/ 19/ 25 1015.9R
$$

TC  - TEMPERATURE IN CELSIUS
VSB - VISIBILITY IN STATUTE MILES
WCI - WIND CHILL INDEX
HX  - HEAT INDEX



USA.gov is the U.S. government's official web portal to all federal, state and local government web resources and services.